| time (UTC) | temp F | wind direction | speed knots | gust knots | rain 1hr in | rain 24hr in | rain mn in | humidity % | barometer mb |
| 20260507074549 | 51 | 65 | 2.6 | 4.3 | 0.00 | 0.00 | 0.00 | 81 | 1015.0 |
| 20260507073049 | 51 | 72 | 0.9 | 4.3 | 0.00 | 0.00 | 0.00 | 83 | 1015.0 |
| 20260507071548 | 50 | 46 | 1.7 | 4.3 | 0.00 | 0.00 | 0.00 | 84 | 1014.9 |
| 20260507070103 | 49 | 69 | 1.7 | 4.3 | 0.00 | 0.00 | 0.00 | 85 | 1014.9 |
| 20260507064626 | 49 | 75 | 1.7 | 5.2 | 0.00 | 0.00 | 0.00 | 85 | 1014.8 |
| 20260507063058 | 48 | 80 | 0.9 | 4.3 | 0.00 | 0.00 | 0.00 | 86 | 1014.8 |
| 20260507061552 | 48 | 77 | 1.7 | 4.3 | 0.00 | 0.00 | 0.00 | 86 | 1014.6 |
| 20260507060111 | 47 | 61 | 1.7 | 5.2 | 0.00 | 0.00 | 0.00 | 87 | 1014.6 |
| 20260507054609 | 47 | 68 | 1.7 | 5.2 | 0.00 | 0.00 | 0.00 | 87 | 1014.5 |
| 20260507053051 | 47 | 75 | 1.7 | 4.3 | 0.00 | 0.00 | 0.00 | 87 | 1014.3 |
| 20260507051604 | 47 | 50 | 0.9 | 4.3 | 0.00 | 0.00 | 0.00 | 87 | 1014.3 |
| 20260507050055 | 47 | 87 | 0.9 | 3.5 | 0.00 | 0.00 | 0.00 | 87 | 1014.1 |
| 20260507044550 | 47 | 29 | 0.9 | 2.6 | 0.00 | 0.00 | 0.00 | 87 | 1014.1 |
| 20260507043056 | 46 | 0 | 0.0 | 1.7 | 0.00 | 0.00 | 0.00 | 87 | 1014.0 |
| 20260507041547 | 47 | 0 | 0.0 | 2.6 | 0.00 | 0.00 | 0.00 | 87 | 1014.0 |
| 20260507040049 | 47 | 69 | 0.0 | 3.5 | 0.00 | 0.00 | 0.00 | 87 | 1013.8 |
| 20260507034551 | 47 | 38 | 0.9 | 2.6 | 0.00 | 0.00 | 0.00 | 87 | 1014.0 |
| 20260507033050 | 47 | 75 | 0.9 | 2.6 | 0.00 | 0.00 | 0.00 | 87 | 1013.9 |
| 20260507031548 | 47 | 0 | 0.0 | 0.9 | 0.00 | 0.00 | 0.00 | 87 | 1013.9 |
| 20260507030053 | 47 | 0 | 0.0 | 0.0 | 0.00 | 0.00 | 0.00 | 87 | 1013.9 |
| 20260507024555 | 47 | 0 | 0.0 | 3.5 | 0.00 | 0.00 | 0.00 | 87 | 1013.9 |
| 20260507023051 | 47 | 0 | 0.9 | 2.6 | 0.00 | 0.00 | 0.00 | 87 | 1013.8 |
| 20260507021553 | 47 | 0 | 0.0 | 0.0 | 0.00 | 0.00 | 0.00 | 87 | 1013.7 |
| 20260507020108 | 47 | 0 | 0.0 | 3.5 | 0.00 | 0.00 | 0.00 | 87 | 1013.7 |
| 20260507014556 | 47 | 80 | 0.9 | 2.6 | 0.00 | 0.00 | 0.00 | 86 | 1013.6 |
| 20260507013047 | 48 | 77 | 0.9 | 3.5 | 0.00 | 0.00 | 0.00 | 86 | 1013.6 |
| 20260507011547 | 48 | 64 | 0.9 | 3.5 | 0.00 | 0.00 | 0.00 | 86 | 1013.6 |
| 20260507010059 | 48 | 94 | 0.9 | 3.5 | 0.00 | 0.00 | 0.00 | 86 | 1013.6 |
| 20260507004551 | 48 | 79 | 0.9 | 1.7 | 0.00 | 0.00 | 0.00 | 86 | 1013.6 |
| 20260507003050 | 49 | 82 | 0.9 | 2.6 | 0.00 | 0.00 | 0.00 | 85 | 1013.6 |
| 20260507001557 | 49 | 65 | 0.9 | 2.6 | 0.00 | 0.00 | 0.00 | 85 | 1013.6 |
| 20260507000048 | 49 | 0 | 1.7 | 4.3 | 0.00 | 0.00 | 0.00 | 85 | 1013.7 |
| 20260506234558 | 49 | 70 | 1.7 | 3.5 | 0.00 | 0.00 | 0.00 | 85 | 1013.6 |
| 20260506233052 | 49 | 80 | 0.9 | 2.6 | 0.00 | 0.00 | 0.00 | 85 | 1013.6 |
| 20260506231607 | 49 | 95 | 0.9 | 3.5 | 0.00 | 0.00 | 0.00 | 85 | 1013.6 |
| 20260506230109 | 49 | 67 | 0.0 | 2.6 | 0.00 | 0.00 | 0.00 | 85 | 1013.6 |
| 20260506224553 | 49 | 50 | 0.9 | 4.3 | 0.00 | 0.00 | 0.00 | 85 | 1013.6 |
| 20260506223055 | 50 | 79 | 0.9 | 2.6 | 0.00 | 0.00 | 0.00 | 86 | 1013.5 |
| 20260506221610 | 50 | 70 | 0.0 | 1.7 | 0.00 | 0.00 | 0.00 | 85 | 1013.4 |
| 20260506220110 | 50 | 0 | 0.0 | 0.9 | 0.00 | 0.00 | 0.00 | 85 | 1013.5 |
| 20260506214550 | 50 | 70 | 0.0 | 2.6 | 0.00 | 0.00 | 0.00 | 84 | 1013.4 |
| 20260506213103 | 50 | 81 | 0.0 | 1.7 | 0.00 | 0.00 | 0.00 | 84 | 1013.4 |
| 20260506211547 | 50 | 68 | 1.7 | 2.6 | 0.00 | 0.00 | 0.00 | 83 | 1013.3 |
| 20260506210055 | 50 | 65 | 0.9 | 2.6 | 0.00 | 0.00 | 0.00 | 84 | 1013.3 |
| 20260506204548 | 50 | 0 | 0.9 | 3.5 | 0.00 | 0.00 | 0.00 | 83 | 1013.2 |
| 20260506203052 | 51 | 53 | 1.7 | 3.5 | 0.00 | 0.00 | 0.00 | 82 | 1013.0 |
| 20260506201552 | 51 | 86 | 2.6 | 5.2 | 0.00 | 0.00 | 0.00 | 80 | 1012.8 |
| 20260506200052 | 52 | 74 | 1.7 | 4.3 | 0.00 | 0.00 | 0.00 | 77 | 1012.7 |
| 20260506194552 | 52 | 73 | 0.0 | 2.6 | 0.00 | 0.00 | 0.00 | 75 | 1012.5 |
| 20260506193050 | 52 | 76 | 0.9 | 1.7 | 0.00 | 0.00 | 0.00 | 74 | 1012.3 |
| 20260506191553 | 52 | 0 | 0.0 | 1.7 | 0.00 | 0.00 | 0.00 | 74 | 1012.4 |
| 20260506190057 | 52 | 0 | 0.0 | 1.7 | 0.00 | 0.00 | 0.00 | 74 | 1012.2 |
| 20260506184605 | 52 | 85 | 0.9 | 2.6 | 0.00 | 0.00 | 0.00 | 74 | 1012.1 |
| 20260506183051 | 52 | 56 | 0.0 | 1.7 | 0.00 | 0.00 | 0.00 | 73 | 1012.0 |
| 20260506181552 | 52 | 0 | 0.9 | 1.7 | 0.00 | 0.00 | 0.00 | 73 | 1011.9 |
| 20260506180057 | 52 | 70 | 0.9 | 2.6 | 0.00 | 0.00 | 0.00 | 73 | 1011.8 |
| 20260506174551 | 52 | 70 | 0.9 | 3.5 | 0.00 | 0.00 | 0.00 | 75 | 1011.6 |
| 20260506173053 | 52 | 74 | 0.9 | 2.6 | 0.00 | 0.00 | 0.00 | 75 | 1011.6 |
| 20260506171558 | 52 | 80 | 1.7 | 4.3 | 0.00 | 0.00 | 0.00 | 76 | 1011.6 |
| 20260506170100 | 52 | 53 | 0.0 | 2.6 | 0.00 | 0.00 | 0.00 | 77 | 1011.6 |
| 20260506164608 | 52 | 70 | 1.7 | 4.3 | 0.00 | 0.00 | 0.00 | 76 | 1011.5 |
| 20260506163047 | 52 | 69 | 1.7 | 5.2 | 0.00 | 0.00 | 0.00 | 74 | 1011.7 |
| 20260506161553 | 52 | 89 | 2.6 | 7.8 | 0.00 | 0.00 | 0.00 | 77 | 1011.5 |
| 20260506154550 | 52 | 0 | 0.9 | 5.2 | 0.00 | 0.00 | 0.00 | 82 | 1011.6 |
| 20260506153046 | 52 | 68 | 2.6 | 5.2 | 0.00 | 0.00 | 0.00 | 82 | 1011.5 |
| 20260506151556 | 53 | 58 | 3.5 | 8.7 | 0.00 | 0.00 | 0.00 | 76 | 1011.5 |
| 20260506150053 | 55 | 86 | 2.6 | 6.1 | 0.00 | 0.00 | 0.00 | 65 | 1011.4 |
| 20260506144559 | 55 | 0 | 0.9 | 5.2 | 0.00 | 0.00 | 0.00 | 65 | 1011.3 |
| 20260506143050 | 55 | 69 | 1.7 | 5.2 | 0.00 | 0.00 | 0.00 | 64 | 1011.3 |
| 20260506141549 | 56 | 173 | 0.9 | 4.3 | 0.00 | 0.00 | 0.00 | 64 | 1011.3 |
| 20260506140048 | 56 | 104 | 0.9 | 5.2 | 0.00 | 0.00 | 0.00 | 63 | 1011.3 |
| 20260506134547 | 55 | 138 | 0.9 | 5.2 | 0.00 | 0.00 | 0.00 | 65 | 1011.3 |
| 20260506133052 | 55 | 230 | 0.9 | 4.3 | 0.00 | 0.00 | 0.00 | 68 | 1011.4 |
| 20260506131557 | 54 | 8 | 1.7 | 7.8 | 0.00 | 0.00 | 0.00 | 69 | 1011.4 |
| 20260506130049 | 54 | 196 | 1.7 | 5.2 | 0.00 | 0.00 | 0.00 | 68 | 1011.4 |
| 20260506124552 | 55 | 103 | 0.9 | 7.0 | 0.00 | 0.00 | 0.00 | 68 | 1011.3 |
| 20260506123051 | 55 | 105 | 1.7 | 5.2 | 0.00 | 0.00 | 0.00 | 66 | 1011.2 |
| 20260506121553 | 55 | 127 | 1.7 | 6.1 | 0.00 | 0.00 | 0.00 | 66 | 1011.3 |
| 20260506120052 | 54 | 38 | 1.7 | 5.2 | 0.00 | 0.00 | 0.00 | 68 | 1011.3 |
| 20260506114555 | 54 | 129 | 2.6 | 7.8 | 0.00 | 0.00 | 0.00 | 68 | 1011.2 |
| 20260506113050 | 56 | 110 | 2.6 | 6.1 | 0.00 | 0.00 | 0.00 | 64 | 1011.3 |
| 20260506111550 | 56 | 29 | 1.7 | 5.2 | 0.00 | 0.00 | 0.00 | 60 | 1011.2 |
| 20260506110047 | 56 | 67 | 1.7 | 5.2 | 0.00 | 0.00 | 0.00 | 62 | 1011.2 |
| 20260506104553 | 55 | 209 | 2.6 | 7.0 | 0.00 | 0.00 | 0.00 | 63 | 1011.2 |
| 20260506103053 | 56 | 147 | 1.7 | 6.1 | 0.00 | 0.00 | 0.00 | 63 | 1011.3 |
| 20260506101547 | 55 | 87 | 2.6 | 6.1 | 0.00 | 0.00 | 0.00 | 63 | 1011.3 |
| 20260506100105 | 54 | 102 | 1.7 | 7.0 | 0.00 | 0.00 | 0.00 | 65 | 1011.4 |
| 20260506094551 | 54 | 84 | 1.7 | 7.0 | 0.00 | 0.00 | 0.00 | 67 | 1011.5 |
| 20260506093056 | 54 | 248 | 1.7 | 7.8 | 0.00 | 0.00 | 0.00 | 67 | 1011.3 |
| 20260506091547 | 53 | 95 | 1.7 | 7.0 | 0.00 | 0.00 | 0.00 | 69 | 1011.3 |
| 20260506090047 | 52 | 66 | 1.7 | 7.0 | 0.00 | 0.00 | 0.00 | 72 | 1011.3 |
| 20260506084553 | 51 | 238 | 1.7 | 7.0 | 0.00 | 0.00 | 0.00 | 73 | 1011.2 |
| 20260506083050 | 52 | 226 | 1.7 | 8.7 | 0.00 | 0.00 | 0.00 | 72 | 1011.1 |
| 20260506081550 | 52 | 91 | 2.6 | 7.0 | 0.00 | 0.00 | 0.00 | 73 | 1011.1 |